Regional Weather Roundup
Issued by NWS Upton, NY

Current Version | Previous Version | Graphics & Text | Print | Product List | Glossary On
Versions: 1 2 3 4 5 6 7 8 9 10 11 12 13 14 15 16 17 18 19 20 21 22 23 24 25 26 27 28 29 30 31 32 33 34 35 36 37 38 39 40 41 42 43 44 45 46 47 48 49 50
737
ASUS41 KOKX 151706
RWROKX

Regional Weather Roundup
National Weather Service New York NY
100 PM EDT SUN SEP 15 2019

Note: "FAIR" indicates few or no clouds below 12,000 feet with no
significant weather and/or obstructions to visibility.

NYZ071-072-176-178-NJZ106-104-151800-
New York City Metro Area

CITY           SKY/WX    TMP DP  RH WIND       PRES   REMARKS
Central Park   FAIR      79  58  48 VRB3      30.16F
Bronx Lehman C   N/A     77  59  53 W3          N/A
LaGuardia Arpt FAIR      79  58  48 NW5       30.12F
Queens College   N/A     79  59  50 N2          N/A
Kennedy Intl   PTSUNNY   80  63  55 VRB3      30.14F
Breezy Point     N/A     75 N/A N/A SW7         N/A
Brooklyn Coll    N/A     77  57  50 NW3         N/A
Staten Island    N/A     79  57  47 W8          N/A
Newark/Liberty FAIR      81  58  45 SW9       30.13F
Teterboro      FAIR      79  55  43 VRB6      30.12F
$$

NYZ177-179-078>081-151800-
Long Island New York

CITY           SKY/WX    TMP DP  RH WIND       PRES   REMARKS
Jones Beach      N/A     75 N/A N/A S7          N/A
Wantagh          N/A     79  66  65 S9          N/A
Hempstead        N/A     79  61  53 W1        30.16F
Matinecock Pt    N/A     73 N/A N/A SW3         N/A
Farmingdale    FAIR      77  61  57 VRB5      30.13F
MacArthur/ISP  FAIR      79  61  53 W6        30.13F
Stony Brook      N/A     73  59  60 NW5         N/A
Shirley        FAIR      79  60  52 NW7       30.13F
Mt Sinai Harb    N/A    N/A N/A N/A N2          N/A
Westhampton    FAIR      77  61  57 CALM      30.15F
East Hampton   FAIR      74  62  64 CALM      30.13F
Southold         N/A    N/A N/A N/A NW5         N/A
Montauk          N/A     75  61  61 W6        30.14F
$$

NYZ052-065-067-151800-
Hudson Valley

CITY           SKY/WX    TMP DP  RH WIND       PRES   REMARKS
White Plains   FAIR      76  53  44 N5        30.13F
Larchmont Harb   N/A     72 N/A N/A SE7         N/A
Croton On Huds   N/A     75 N/A N/A MISG        N/A
Somers           N/A     75  55  50 N2          N/A
Brewster         N/A     73  55  53 NW5         N/A
Newburgh       NOT AVBL
Montgomery     FAIR      73  60  63 SE5       30.13F
Otisville        N/A     73  50  43 NW3         N/A
Warwick          N/A     73  57  56 SW2         N/A
Suffern          N/A     75  52  43 W3          N/A
Poughkeepsie   FAIR      75  55  49 CALM      30.12F
Albany         PTSUNNY   75  55  49 NW5       30.13F
$$

NJZ001-105-106-008-010-013-015-019>022-104-151800-
New Jersey

CITY           SKY/WX    TMP DP  RH WIND       PRES   REMARKS
Newark/Liberty FAIR      81  58  45 SW9       30.13F
Teterboro      FAIR      79  55  43 VRB6      30.12F
Caldwell       FAIR      81  59  47 VRB5      30.14F
Somerville     FAIR      80  55  42 VRB5      30.13F
Linden         FAIR      79  56  45 CALM      30.14F
Perth Amboy      N/A     75 N/A N/A W3          N/A
Sussex         FAIR      77  52  41 VRB6      30.15F
Andover          N/A     76  56  49 VRB3      30.16F
Trenton        FAIR      79  58  48 NW9       30.14F
Millville      PTSUNNY   79  66  64 NW9       30.15S
Atlantic City  CLOUDY    80  68  66 N7        30.15
Wrightstown    MOSUNNY   81  60  49 CALM      30.15
Toms River     PTSUNNY   80  71  74 CALM      30.15F
Belmar         CLOUDY    77  65  66 CALM      30.16F
$$

PAZ047>061-062-071-151800-
Eastern Pennsylvania

CITY           SKY/WX    TMP DP  RH WIND       PRES   REMARKS
Philadelphia   FAIR      80  61  52 VRB5      30.15F
Allentown      FAIR      77  54  44 N3        30.16F
Scranton       FAIR      74  53  48 W8        30.19F
$$

CTZ002-004>006-009-010-012-RIZ004-006-007-MAZ004-011-015-151800-
Southern New England

 In CT

CITY           SKY/WX    TMP DP  RH WIND       PRES   REMARKS
Bradley Intl   FAIR      76  53  44 W5        30.11F
Hartford       FAIR      76  54  46 W7        30.10F
Danbury        FAIR      75  57  53 W5        30.14F
Wtrbury/Oxford FAIR      73  55  53 NW8       30.15F
Norwalk Harbor   N/A     72 N/A N/A S10         N/A
Bridgeport     FAIR      74  63  68 S9        30.13F
Meriden        FAIR      77  56  48 VRB3      30.11F
New Haven      FAIR      76  63  64 S9        30.13F
Chester        FAIR      77  57  50 W6        30.13F
Groton         FAIR      77  59  53 S8        30.11F
Willimantic    FAIR      75  52  44 W6        30.12F

 In RI

CITY           SKY/WX    TMP DP  RH WIND       PRES   REMARKS
Providence     FAIR      79  51  37 NW10      30.11F
Block Island   FAIR     N/A N/A N/A VRB7      30.13F
Westerly       FAIR      79  61  53 SW9       30.12F

In MA

CITY           SKY/WX    TMP DP  RH WIND       PRES   REMARKS
Boston         FAIR      79  53  40 W10       30.07F
Worcester      FAIR      70  53  54 W12       30.12F
Westfield      FAIR      75  54  47 VRB6      30.11F
Provincetown   FAIR      73  62  68 W9        30.10F
Nantucket      FAIR      73  67  81 SW8       30.11F
$$

ANZ330-335-338-340-345-350-353-355-151800-
Coastal Marine Observations


STATION/POSITION TIME  SKY/WX   TEMP    WIND        PRES    VSBY  WAVE
                                AIR SEA DIR/SP/G                  HT/PER
                 (UTC)          (F)     (DEG/KT/KT) (MB)    (MI)  (FT/S)
NY Harb Entrance 1650            72 71  280/  4/  6 1020.6          3/ 9
20 S Fire Island 1650            70 70  350/  6/  6 1021.1          3/ 9
Great South Bay  1615            73 73  190/  4/  4   N/A
23 SSW Montauk P NOT AVBL
15 E Barnegat Li 1700               72                N/A           3/ 8
Hudson Canyon    1640            71 72  260/  8/ 10 1021.1
Kings Point      1624            73 71   20/  2/  3 1021.4
Execution Rocks  NOT AVBL
Western LI Sound NOT AVBL
Central LI Sound NOT AVBL
Robbins Reef     1630            73     130/  5/  6 1020.6
$$


>>>>>>>>>>>>>>>>>>>>>>>>>>>> KEY <<<<<<<<<<<<<<<<<<<<<<<<<<<
>                                                          <
>     SKY/WX - Sky Condition/Present Weather               <
>     TMP    - Temperature in Fahrenheit                   <
>     DP     - Dew Point in Fahrenheit                     <
>     RH     - Relative Humidity in Percent                <
>     WIND   - Direction (from) and Speed in MPH           <
>     PRES   - Mean Sea Level Pressure (inches of Hg)      <
>     WCI    - Wind Chill Index                            <
>     VSB    - Visibility in Miles                         <
>     HX     - Heat Index                                  <
>     TC     - Temperature in Celsius                      <
>     VRB    - Variable Wind Direction                     <
>                                                          <
>>>>>>>>>>>>>>>>>>>>>>>>>>>> KEY <<<<<<<<<<<<<<<<<<<<<<<<<<<




USA.gov is the U.S. government's official web portal to all federal, state and local government web resources and services.